When you browse on this site, cookies collect data to enhance your experience and personalize the content and advertising you see.
Visit our Privacy Policy to learn more. By continuing to use the site, you agree to this use of cookies and data.
  • în România
  • Lista ţărilor
  • Pe 7 zile
  • Temperatura apei
  • Hartă satelitară
  • Meteo pe hartă
  • Widget-uri
  • user-avatar
    Intrare

    Meteo pe oră la Batumi

    Astăzi, 26 Martie, Marţi

    Timp Temperatura Precipitaţii Vânt Presiune Umiditate
    00:00 +7°C° 0 mm 1 m/s 760 mmHg 94%
    01:00 +7°C° 0 mm 1 m/s 760 mmHg 91%
    02:00 +7°C° 0 mm 1 m/s 760 mmHg 89%
    03:00 +7°C° 0 mm 1 m/s 760 mmHg 84%
    04:00 +7°C° 0 mm 1 m/s 760 mmHg 82%
    05:00 +8°C° 0 mm 1 m/s 760 mmHg 80%
    06:00 +7°C° 0 mm 2 m/s 760 mmHg 78%
    07:00 +9°C° 0 mm 2 m/s 760 mmHg 73%
    08:00 +12°C° 0 mm 2 m/s 759 mmHg 67%
    09:00 +15°C° 0 mm 2 m/s 759 mmHg 62%
    10:00 +16°C° 0 mm 2 m/s 759 mmHg 62%
    11:00 +16°C° 0 mm 2 m/s 759 mmHg 63%
    12:00 +17°C° 0 mm 3 m/s 758 mmHg 63%
    13:00 +17°C° 0 mm 2 m/s 758 mmHg 65%
    14:00 +16°C° 0 mm 2 m/s 758 mmHg 67%
    15:00 +16°C° 0 mm 2 m/s 758 mmHg 69%
    16:00 +15°C° 0 mm 2 m/s 758 mmHg 75%
    17:00 +14°C° 0 mm 1 m/s 758 mmHg 80%
    18:00 +13°C° 0 mm 1 m/s 758 mmHg 85%
    19:00 +13°C° 0 mm 1 m/s 759 mmHg 86%
    20:00 +12°C° 0 mm 1 m/s 759 mmHg 87%
    21:00 +12°C° 0 mm 1 m/s 760 mmHg 87%
    22:00 +12°C° 0 mm 1 m/s 760 mmHg 86%
    23:00 +12°C° 0 mm 1 m/s 760 mmHg 85%

    Mâine, 27 Martie, Miercuri

    Timp Temperatura Precipitaţii Vânt Presiune Umiditate
    00:00 +11°C° 0 mm 1 m/s 760 mmHg 84%
    01:00 +11°C° 0 mm 1 m/s 760 mmHg 83%
    02:00 +11°C° 0 mm 1 m/s 760 mmHg 82%
    03:00 +11°C° 0 mm 1 m/s 760 mmHg 81%
    04:00 +11°C° 0 mm 1 m/s 761 mmHg 80%
    05:00 +11°C° 0 mm 1 m/s 761 mmHg 80%
    06:00 +10°C° 0 mm 1 m/s 761 mmHg 79%
    07:00 +13°C° 0 mm 1 m/s 761 mmHg 74%
    08:00 +15°C° 0 mm 1 m/s 761 mmHg 68%
    09:00 +18°C° 0 mm 1 m/s 761 mmHg 63%
    10:00 +19°C° 0 mm 1 m/s 761 mmHg 62%
    11:00 +18°C° 0 mm 2 m/s 760 mmHg 62%
    12:00 +19°C° 0 mm 2 m/s 760 mmHg 61%
    13:00 +18°C° 0 mm 2 m/s 760 mmHg 61%
    14:00 +18°C° 0 mm 2 m/s 760 mmHg 62%
    15:00 +18°C° 0 mm 2 m/s 760 mmHg 63%
    16:00 +16°C° 0 mm 2 m/s 761 mmHg 69%
    17:00 +15°C° 0 mm 2 m/s 761 mmHg 76%
    18:00 +13°C° 0 mm 3 m/s 762 mmHg 82%
    19:00 +12°C° 0.1 mm 3 m/s 763 mmHg 87%
    20:00 +11°C° 0.1 mm 3 m/s 764 mmHg 91%
    21:00 +10°C° 0.1 mm 3 m/s 765 mmHg 95%
    22:00 +10°C° 0.1 mm 3 m/s 765 mmHg 95%
    23:00 +10°C° 0.1 mm 3 m/s 765 mmHg 95%

    Poimâine, 28 Martie, Joi

    Timp Temperatura Precipitaţii Vânt Presiune Umiditate
    00:00 +9°C° 0.1 mm 2 m/s 765 mmHg 95%
    01:00 +9°C° 0.2 mm 3 m/s 765 mmHg 95%
    02:00 +9°C° 0.2 mm 3 m/s 766 mmHg 94%
    03:00 +9°C° 0.2 mm 3 m/s 766 mmHg 94%
    04:00 +8°C° 0.2 mm 3 m/s 766 mmHg 94%
    05:00 +8°C° 0.2 mm 3 m/s 766 mmHg 94%
    06:00 +8°C° 0.2 mm 3 m/s 766 mmHg 94%
    07:00 +8°C° 0.2 mm 3 m/s 766 mmHg 88%
    08:00 +9°C° 0.2 mm 3 m/s 766 mmHg 83%
    09:00 +10°C° 0.2 mm 3 m/s 766 mmHg 78%
    10:00 +10°C° 0.2 mm 3 m/s 766 mmHg 78%
    11:00 +10°C° 0.2 mm 3 m/s 766 mmHg 77%
    12:00 +11°C° 0.2 mm 3 m/s 766 mmHg 77%
    13:00 +11°C° 0.3 mm 3 m/s 766 mmHg 81%
    14:00 +10°C° 0.3 mm 3 m/s 766 mmHg 85%
    15:00 +10°C° 0.3 mm 3 m/s 765 mmHg 89%
    16:00 +9°C° 0.2 mm 2 m/s 765 mmHg 90%
    17:00 +9°C° 0.2 mm 2 m/s 765 mmHg 91%
    18:00 +8°C° 0.2 mm 2 m/s 766 mmHg 92%
    19:00 +8°C° 0.2 mm 2 m/s 766 mmHg 93%
    20:00 +8°C° 0.2 mm 2 m/s 766 mmHg 94%
    21:00 +7°C° 0.2 mm 2 m/s 767 mmHg 95%
    22:00 +7°C° 0.2 mm 2 m/s 767 mmHg 95%
    23:00 +8°C° 0.2 mm 1 m/s 767 mmHg 95%

    29 Martie, Vineri

    Timp Temperatura Precipitaţii Vânt Presiune Umiditate
    00:00 +8°C° 0.2 mm 1 m/s 766 mmHg 95%
    01:00 +8°C° 0.5 mm 1 m/s 766 mmHg 95%
    02:00 +8°C° 0.5 mm 1 m/s 766 mmHg 95%
    03:00 +7°C° 0.5 mm 2 m/s 766 mmHg 95%
    04:00 +8°C° 0.5 mm 1 m/s 766 mmHg 96%
    05:00 +8°C° 0.5 mm 1 m/s 766 mmHg 96%
    06:00 +7°C° 0.5 mm 1 m/s 766 mmHg 96%
    07:00 +8°C° 0.4 mm 1 m/s 766 mmHg 94%
    08:00 +8°C° 0.4 mm 1 m/s 766 mmHg 92%
    09:00 +8°C° 0.4 mm 1 m/s 766 mmHg 90%
    10:00 +8°C° 0.3 mm 2 m/s 765 mmHg 89%
    11:00 +8°C° 0.3 mm 2 m/s 765 mmHg 88%
    12:00 +9°C° 0.3 mm 2 m/s 765 mmHg 86%
    13:00 +9°C° 0.3 mm 2 m/s 765 mmHg 87%
    14:00 +9°C° 0.3 mm 2 m/s 765 mmHg 88%
    15:00 +9°C° 0.3 mm 2 m/s 764 mmHg 88%
    16:00 +8°C° 0.2 mm 2 m/s 765 mmHg 90%
    17:00 +9°C° 0.2 mm 1 m/s 765 mmHg 91%
    18:00 +8°C° 0.2 mm 1 m/s 765 mmHg 93%
    19:00 +8°C° 0.2 mm 1 m/s 765 mmHg 93%
    20:00 +8°C° 0.2 mm 1 m/s 765 mmHg 94%
    21:00 +7°C° 0.2 mm 1 m/s 766 mmHg 95%
    22:00 +6°C° 0.1 mm 0 m/s 766 mmHg 95%
    23:00 +6°C° 0.1 mm 0 m/s 765 mmHg 95%

    30 Martie, Sâmbătă

    Timp Temperatura Precipitaţii Vânt Presiune Umiditate
    00:00 +6°C° 0.1 mm 0 m/s 765 mmHg 95%
    01:00 +6°C° 0.2 mm 0 m/s 765 mmHg 94%
    02:00 +6°C° 0.2 mm 0 m/s 764 mmHg 93%
    03:00 +6°C° 0.2 mm 0 m/s 764 mmHg 92%
    04:00 +6°C° 0.2 mm 0 m/s 764 mmHg 91%
    05:00 +7°C° 0.2 mm 1 m/s 764 mmHg 90%
    06:00 +7°C° 0.2 mm 1 m/s 763 mmHg 89%
    07:00 +9°C° 0.1 mm 1 m/s 763 mmHg 86%
    08:00 +9°C° 0.1 mm 2 m/s 763 mmHg 82%
    09:00 +10°C° 0.1 mm 2 m/s 762 mmHg 79%
    10:00 +12°C° 0.1 mm 2 m/s 762 mmHg 81%
    11:00 +12°C° 0.1 mm 2 m/s 762 mmHg 82%
    12:00 +13°C° 0.1 mm 2 m/s 761 mmHg 84%
    13:00 +13°C° 0.1 mm 2 m/s 760 mmHg 84%
    14:00 +14°C° 0.1 mm 2 m/s 760 mmHg 84%
    15:00 +14°C° 0.1 mm 2 m/s 759 mmHg 84%
    16:00 +13°C° 0.2 mm 2 m/s 759 mmHg 87%
    17:00 +13°C° 0.2 mm 2 m/s 759 mmHg 89%
    18:00 +12°C° 0.2 mm 2 m/s 759 mmHg 92%
    19:00 +12°C° 0.3 mm 2 m/s 759 mmHg 91%
    20:00 +12°C° 0.3 mm 2 m/s 759 mmHg 91%
    21:00 +12°C° 0.3 mm 2 m/s 759 mmHg 90%
    22:00 +12°C° 0.1 mm 2 m/s 759 mmHg 91%
    23:00 +12°C° 0.1 mm 2 m/s 759 mmHg 91%

    31 Martie, Duminică

    Timp Temperatura Precipitaţii Vânt Presiune Umiditate
    00:00 +12°C° 0.1 mm 2 m/s 759 mmHg 91%
    01:00 +12°C° 0 mm 2 m/s 759 mmHg 90%
    02:00 +12°C° 0 mm 2 m/s 758 mmHg 89%
    03:00 +12°C° 0 mm 2 m/s 758 mmHg 88%
    04:00 +12°C° 0.1 mm 2 m/s 758 mmHg 88%
    05:00 +12°C° 0.1 mm 2 m/s 758 mmHg 87%
    06:00 +12°C° 0.1 mm 2 m/s 758 mmHg 87%
    07:00 +13°C° 0 mm 2 m/s 757 mmHg 85%
    08:00 +13°C° 0 mm 3 m/s 757 mmHg 83%
    09:00 +14°C° 0 mm 3 m/s 757 mmHg 81%
    10:00 +16°C° 0 mm 3 m/s 757 mmHg 79%
    11:00 +18°C° 0 mm 3 m/s 756 mmHg 77%
    12:00 +19°C° 0 mm 3 m/s 756 mmHg 75%
    13:00 +18°C° 0 mm 3 m/s 755 mmHg 75%
    14:00 +18°C° 0 mm 3 m/s 755 mmHg 76%
    15:00 +18°C° 0 mm 2 m/s 755 mmHg 76%
    16:00 +17°C° 0.1 mm 2 m/s 755 mmHg 80%
    17:00 +16°C° 0.1 mm 2 m/s 755 mmHg 84%
    18:00 +15°C° 0.1 mm 2 m/s 755 mmHg 88%
    19:00 +14°C° 0.1 mm 2 m/s 755 mmHg 89%
    20:00 +14°C° 0.1 mm 2 m/s 755 mmHg 90%
    21:00 +13°C° 0.1 mm 1 m/s 755 mmHg 91%
    22:00 +13°C° 0 mm 2 m/s 755 mmHg 91%
    23:00 +12°C° 0 mm 2 m/s 755 mmHg 91%
    Arată mai mult